WMT4793 LFBD-LIPZ

Flight info

Callsign WMT4793
Flight time 1h 21m
Altitude 34000
Route OBLOC DCT SECHE DCT NARAK DCT DITEV DCT MEN DCT NINUN DCT LATAM/N0444F380 DCT ROMAM/N0444F370 DCT ETIDO DCT NEDRU DCT RILIP DCT EMMEF DCT LAPRI/N0442F380 DCT MOGBO DCT TZO DCT OSKOR DCT NOBMI DCT IDREK/N0385F190 L615 ADOSA L612 ALBET
Aircraft A320/M-SDE1E2E3FGIJ1J4RWXY/LB1

Departure

Time 2026-05-03 21:24
Airport Bordeaux–Mérignac Airport (LFBD)

Arrival

Time 2026-05-03 22:45
Airport Venice Marco Polo Airport (LIPZ)
Time Latitude Longitude Altitude Speed Heading
2026-05-03 21:23 44.73396 -0.80363 4480 ft 259 kts 165°
2026-05-03 21:24 44.71762 -0.79283 5398 ft 264 kts 144°
2026-05-03 21:24 44.70513 -0.77365 6304 ft 271 kts 122°
2026-05-03 21:24 44.69828 -0.74862 7119 ft 277 kts 106°
2026-05-03 21:24 44.69675 -0.72169 7922 ft 285 kts 86°
2026-05-03 21:25 44.69906 -0.69373 8760 ft 290 kts 84°
2026-05-03 21:25 44.70162 -0.66537 9582 ft 294 kts 84°
2026-05-03 21:25 44.70424 -0.63655 10254 ft 304 kts 84°
2026-05-03 21:25 44.70697 -0.60589 10488 ft 327 kts 84°
2026-05-03 21:26 44.70986 -0.57343 10921 ft 340 kts 84°
2026-05-03 21:26 44.71279 -0.54056 11575 ft 345 kts 84°
2026-05-03 21:26 44.71579 -0.50677 12268 ft 349 kts 85°
2026-05-03 21:26 44.71879 -0.47264 12961 ft 353 kts 85°
2026-05-03 21:27 44.72182 -0.43802 13662 ft 357 kts 85°
2026-05-03 21:27 44.72485 -0.40303 14279 ft 361 kts 85°
2026-05-03 21:27 44.72786 -0.36819 14876 ft 365 kts 85°
2026-05-03 21:27 44.73094 -0.33250 15470 ft 368 kts 85°
2026-05-03 21:28 44.73407 -0.29641 16058 ft 372 kts 85°
2026-05-03 21:28 44.73718 -0.26056 16647 ft 375 kts 85°
2026-05-03 21:28 44.74034 -0.22393 17263 ft 379 kts 86°
2026-05-03 21:28 44.74352 -0.18694 17845 ft 382 kts 86°
2026-05-03 21:29 44.74670 -0.14950 18411 ft 386 kts 86°
2026-05-03 21:29 44.74988 -0.11184 18942 ft 389 kts 86°
2026-05-03 21:29 44.75308 -0.07393 19486 ft 392 kts 86°
2026-05-03 21:29 44.75632 -0.03567 20040 ft 395 kts 86°
2026-05-03 21:30 44.75952 0.00229 20574 ft 397 kts 86°
2026-05-03 21:30 44.76274 0.04101 21085 ft 400 kts 87°
2026-05-03 21:30 44.76596 0.08007 21578 ft 403 kts 87°
2026-05-03 21:30 44.76920 0.11939 22063 ft 406 kts 87°
2026-05-03 21:31 44.77245 0.15898 22558 ft 408 kts 87°
2026-05-03 21:31 44.77573 0.19892 23050 ft 411 kts 87°
2026-05-03 21:31 44.77901 0.23914 23534 ft 414 kts 87°
2026-05-03 21:31 44.78231 0.27960 23941 ft 418 kts 88°
2026-05-03 21:32 44.78560 0.32042 24318 ft 421 kts 88°
2026-05-03 21:32 44.78891 0.36155 24699 ft 424 kts 88°
2026-05-03 21:32 44.79219 0.40248 25034 ft 428 kts 88°
2026-05-03 21:32 44.79554 0.44438 25367 ft 432 kts 88°
2026-05-03 21:33 44.79888 0.48664 25731 ft 435 kts 88°
2026-05-03 21:33 44.80227 0.52922 26096 ft 439 kts 88°
2026-05-03 21:33 44.80569 0.57215 26459 ft 442 kts 88°
2026-05-03 21:33 44.80908 0.61487 26813 ft 445 kts 88°
2026-05-03 21:34 44.81249 0.65843 27161 ft 448 kts 88°
2026-05-03 21:34 44.81587 0.70241 27503 ft 451 kts 88°
2026-05-03 21:34 44.81922 0.74617 27847 ft 454 kts 88°
2026-05-03 21:34 44.82265 0.79066 28157 ft 458 kts 88°
2026-05-03 21:35 44.82609 0.83553 28480 ft 462 kts 88°
2026-05-03 21:35 44.82953 0.88076 28814 ft 465 kts 88°
2026-05-03 21:35 44.83291 0.92575 29170 ft 468 kts 88°
2026-05-03 21:35 44.83632 0.97160 29517 ft 471 kts 88°
2026-05-03 21:36 44.83973 1.01765 29863 ft 474 kts 88°
2026-05-03 21:36 44.84318 1.06404 30170 ft 477 kts 88°
2026-05-03 21:36 44.84665 1.11079 30482 ft 479 kts 88°
2026-05-03 21:36 44.85007 1.15708 30774 ft 482 kts 88°
2026-05-03 21:37 44.85353 1.20415 31094 ft 483 kts 88°
2026-05-03 21:37 44.85701 1.25145 31533 ft 482 kts 88°
2026-05-03 21:37 44.86044 1.29844 31976 ft 481 kts 88°
2026-05-03 21:37 44.86382 1.34538 32421 ft 480 kts 88°
2026-05-03 21:38 44.86717 1.39222 32873 ft 480 kts 88°
2026-05-03 21:38 44.87047 1.43901 33308 ft 479 kts 89°
2026-05-03 21:38 44.87373 1.48572 33762 ft 478 kts 89°
2026-05-03 21:38 44.87692 1.53175 34165 ft 477 kts 88°
2026-05-03 21:39 44.88015 1.57831 34472 ft 478 kts 88°
2026-05-03 21:39 44.88339 1.62497 34789 ft 478 kts 88°
2026-05-03 21:39 44.88664 1.67171 35129 ft 478 kts 88°
2026-05-03 21:39 44.88987 1.71841 35476 ft 477 kts 88°
2026-05-03 21:40 44.89306 1.76510 35804 ft 476 kts 88°
2026-05-03 21:40 44.89615 1.81106 35985 ft 477 kts 88°
2026-05-03 21:40 44.90236 1.90416 36020 ft 476 kts 88°
2026-05-03 21:41 44.90850 1.99719 36023 ft 474 kts 88°
2026-05-03 21:41 44.91455 2.08929 36027 ft 474 kts 88°
2026-05-03 21:42 44.92061 2.18207 36029 ft 473 kts 89°
2026-05-03 21:42 44.92654 2.27471 36030 ft 473 kts 89°
2026-05-03 21:43 44.93227 2.36672 36028 ft 472 kts 89°
2026-05-03 21:43 44.93801 2.45915 36027 ft 471 kts 89°
2026-05-03 21:44 44.94365 2.55097 36032 ft 471 kts 89°
2026-05-03 21:44 44.94926 2.64345 36029 ft 471 kts 89°
2026-05-03 21:45 44.95470 2.73526 36036 ft 472 kts 89°
2026-05-03 21:45 44.96015 2.82777 36049 ft 471 kts 89°
2026-05-03 21:46 44.96558 2.92005 36052 ft 471 kts 89°
2026-05-03 21:46 44.97088 3.01193 36051 ft 472 kts 89°
2026-05-03 21:47 44.97597 3.10454 36055 ft 471 kts 89°
2026-05-03 21:47 44.98101 3.19632 36053 ft 471 kts 89°
2026-05-03 21:48 44.98608 3.28858 36055 ft 471 kts 89°
2026-05-03 21:48 44.99111 3.38091 36057 ft 471 kts 89°
2026-05-03 21:49 44.99599 3.47313 36058 ft 472 kts 89°
2026-05-03 21:49 45.00005 3.55058 36061 ft 471 kts 89°
2026-05-03 21:50 45.00482 3.64253 36062 ft 471 kts 89°
2026-05-03 21:50 45.00957 3.73501 36061 ft 471 kts 89°
2026-05-03 21:51 45.01418 3.82686 36046 ft 471 kts 89°
2026-05-03 21:51 45.01869 3.91920 36065 ft 470 kts 90°
2026-05-03 21:52 45.02311 4.01152 36070 ft 470 kts 90°
2026-05-03 21:52 45.02754 4.10375 36071 ft 470 kts 90°
2026-05-03 21:53 45.03186 4.19569 36074 ft 470 kts 90°
2026-05-03 21:53 45.03663 4.28796 36077 ft 470 kts 88°
2026-05-03 21:54 45.04378 4.37927 36078 ft 470 kts 86°
2026-05-03 21:54 45.05178 4.47134 36081 ft 470 kts 86°
2026-05-03 21:55 45.05911 4.56300 36080 ft 470 kts 87°
2026-05-03 21:55 45.06588 4.65510 36075 ft 470 kts 87°
2026-05-03 21:56 45.07255 4.74701 36075 ft 470 kts 87°
2026-05-03 21:56 45.07924 4.83842 36073 ft 469 kts 87°
2026-05-03 21:57 45.08596 4.93037 36086 ft 469 kts 87°
2026-05-03 21:57 45.09260 5.02255 36074 ft 470 kts 87°
2026-05-03 21:58 45.09912 5.11422 36076 ft 470 kts 87°
2026-05-03 21:58 45.10081 5.20639 36080 ft 466 kts 97°
2026-05-03 21:59 45.09673 5.29758 36080 ft 466 kts 97°
2026-05-03 21:59 45.09264 5.38929 36065 ft 465 kts 97°
2026-05-03 22:00 45.08878 5.48009 36079 ft 464 kts 96°
2026-05-03 22:00 45.08544 5.57131 36078 ft 463 kts 96°
2026-05-03 22:01 45.08207 5.66194 36072 ft 463 kts 96°
2026-05-03 22:01 45.07844 5.75310 36071 ft 463 kts 96°
2026-05-03 22:02 45.07459 5.84403 36080 ft 462 kts 97°
2026-05-03 22:02 45.06898 5.93403 36076 ft 461 kts 99°
2026-05-03 22:03 45.06230 6.02454 36089 ft 461 kts 99°
2026-05-03 22:03 45.05587 6.11445 36091 ft 461 kts 98°
2026-05-03 22:04 45.04970 6.20509 36104 ft 463 kts 98°
2026-05-03 22:04 45.04351 6.29585 36120 ft 463 kts 98°
2026-05-03 22:05 45.03721 6.38617 36117 ft 463 kts 99°
2026-05-03 22:05 45.03067 6.47697 36128 ft 463 kts 99°
2026-05-03 22:06 45.02397 6.56760 36135 ft 464 kts 99°
2026-05-03 22:06 45.01732 6.65802 36142 ft 465 kts 99°
2026-05-03 22:07 45.01079 6.74923 36149 ft 465 kts 98°
2026-05-03 22:07 45.00425 6.83970 36151 ft 465 kts 99°
2026-05-03 22:08 44.99753 6.93078 36150 ft 466 kts 99°
2026-05-03 22:08 44.99070 7.02202 36152 ft 466 kts 99°
2026-05-03 22:09 44.98386 7.11260 36143 ft 466 kts 99°
2026-05-03 22:10 44.98076 7.24972 36129 ft 468 kts 91°
2026-05-03 22:10 44.98132 7.34165 36130 ft 468 kts 92°
2026-05-03 22:11 44.99000 7.43300 36121 ft 472 kts 74°
2026-05-03 22:11 45.01373 7.51966 36118 ft 473 kts 68°
2026-05-03 22:12 45.03829 7.60561 36122 ft 473 kts 69°
2026-05-03 22:12 45.06282 7.69218 36108 ft 473 kts 69°
2026-05-03 22:13 45.08717 7.77837 36116 ft 475 kts 69°
2026-05-03 22:13 45.11173 7.86526 36116 ft 475 kts 69°
2026-05-03 22:14 45.13620 7.95212 36127 ft 474 kts 69°
2026-05-03 22:14 45.16056 8.03908 36122 ft 474 kts 69°
2026-05-03 22:15 45.18470 8.12550 36113 ft 475 kts 69°
2026-05-03 22:15 45.20904 8.21282 36116 ft 475 kts 69°
2026-05-03 22:16 45.23315 8.29966 36115 ft 476 kts 69°
2026-05-03 22:16 45.25739 8.38728 36112 ft 476 kts 69°
2026-05-03 22:17 45.28142 8.47438 36111 ft 475 kts 69°
2026-05-03 22:17 45.30537 8.56170 36110 ft 474 kts 68°
2026-05-03 22:18 45.32923 8.64924 36111 ft 474 kts 68°
2026-05-03 22:18 45.35298 8.73633 36111 ft 474 kts 68°
2026-05-03 22:19 45.37678 8.82398 36112 ft 474 kts 69°
2026-05-03 22:19 45.40038 8.91104 36111 ft 474 kts 69°
2026-05-03 22:20 45.42410 8.99895 36125 ft 474 kts 68°
2026-05-03 22:20 45.44753 9.08626 36111 ft 473 kts 68°
2026-05-03 22:21 45.47105 9.17392 36112 ft 473 kts 69°
2026-05-03 22:21 45.49446 9.26175 36111 ft 473 kts 69°
2026-05-03 22:22 45.51772 9.34955 36111 ft 473 kts 69°
2026-05-03 22:22 45.54082 9.43720 36192 ft 474 kts 69°
2026-05-03 22:23 45.56203 9.52568 36194 ft 469 kts 77°
2026-05-03 22:23 45.57557 9.61580 36192 ft 464 kts 78°
2026-05-03 22:24 45.58894 9.70561 36112 ft 460 kts 78°
2026-05-03 22:24 45.60219 9.79526 36113 ft 467 kts 78°
2026-05-03 22:25 45.61258 9.88753 36085 ft 472 kts 92°
2026-05-03 22:25 45.60938 9.93427 35330 ft 475 kts 100°
2026-05-03 22:25 45.60433 9.98076 34586 ft 479 kts 101°
2026-05-03 22:25 45.59875 10.02743 34292 ft 471 kts 102°
2026-05-03 22:26 45.59305 10.07324 33905 ft 466 kts 102°
2026-05-03 22:26 45.58736 10.11859 33457 ft 461 kts 102°
2026-05-03 22:26 45.58182 10.16309 33026 ft 457 kts 102°
2026-05-03 22:26 45.57637 10.20768 32581 ft 452 kts 102°
2026-05-03 22:27 45.57096 10.25249 31570 ft 461 kts 101°
2026-05-03 22:27 45.56556 10.29775 30861 ft 463 kts 101°
2026-05-03 22:27 45.56019 10.34290 30206 ft 462 kts 102°
2026-05-03 22:27 45.55479 10.38829 29358 ft 464 kts 101°
2026-05-03 22:28 45.54942 10.43313 28678 ft 461 kts 101°
2026-05-03 22:28 45.54395 10.47817 28051 ft 457 kts 101°
2026-05-03 22:28 45.53850 10.52268 27448 ft 453 kts 101°
2026-05-03 22:28 45.53305 10.56686 26850 ft 450 kts 101°
2026-05-03 22:29 45.52764 10.61068 26306 ft 444 kts 101°
2026-05-03 22:29 45.52233 10.65364 25370 ft 449 kts 101°
2026-05-03 22:29 45.51689 10.69784 24463 ft 454 kts 101°
2026-05-03 22:29 45.51139 10.74215 23784 ft 452 kts 101°
2026-05-03 22:30 45.50590 10.78618 23066 ft 448 kts 101°
2026-05-03 22:30 45.50049 10.82971 22359 ft 443 kts 101°
2026-05-03 22:30 45.49515 10.87280 21689 ft 438 kts 101°
2026-05-03 22:30 45.48984 10.91530 21041 ft 433 kts 101°
2026-05-03 22:31 45.48461 10.95683 20428 ft 428 kts 101°
2026-05-03 22:31 45.47936 10.99840 19870 ft 423 kts 101°
2026-05-03 22:31 45.47419 11.03905 19671 ft 409 kts 101°
2026-05-03 22:31 45.46916 11.07853 19302 ft 400 kts 101°
2026-05-03 22:32 45.46428 11.11688 18854 ft 396 kts 101°
2026-05-03 22:32 45.45936 11.15541 18356 ft 392 kts 101°
2026-05-03 22:32 45.45446 11.19341 17788 ft 389 kts 101°
2026-05-03 22:32 45.44956 11.23123 17214 ft 385 kts 101°
2026-05-03 22:33 45.44471 11.26861 16563 ft 383 kts 101°
2026-05-03 22:33 45.43984 11.30608 15730 ft 389 kts 101°
2026-05-03 22:33 45.43502 11.34328 15526 ft 375 kts 101°
2026-05-03 22:33 45.43031 11.37957 15088 ft 369 kts 102°
2026-05-03 22:34 45.42564 11.41534 14605 ft 366 kts 102°
2026-05-03 22:34 45.42100 11.45090 14106 ft 363 kts 102°
2026-05-03 22:34 45.41643 11.48575 13573 ft 361 kts 102°
2026-05-03 22:34 45.41184 11.52076 13039 ft 358 kts 102°
2026-05-03 22:35 45.40731 11.55520 12749 ft 348 kts 102°
2026-05-03 22:35 45.40285 11.58902 12108 ft 350 kts 102°
2026-05-03 22:35 45.39833 11.62305 11561 ft 349 kts 102°
2026-05-03 22:35 45.39386 11.65679 11272 ft 341 kts 102°
2026-05-03 22:36 45.38955 11.68918 11086 ft 323 kts 102°
2026-05-03 22:36 45.38556 11.71922 10850 ft 304 kts 103°
2026-05-03 22:36 45.38169 11.74841 10361 ft 297 kts 103°
2026-05-03 22:36 45.37786 11.77712 9795 ft 294 kts 103°
2026-05-03 22:37 45.37405 11.80563 9163 ft 291 kts 103°
2026-05-03 22:37 45.37023 11.83387 8546 ft 289 kts 103°
2026-05-03 22:37 45.36645 11.86158 7955 ft 287 kts 102°
2026-05-03 22:37 45.36267 11.88936 7362 ft 285 kts 102°
2026-05-03 22:38 45.36016 11.90768 6982 ft 284 kts 102°
2026-05-03 22:38 45.35642 11.93528 6401 ft 283 kts 102°
2026-05-03 22:38 45.35152 11.97154 5632 ft 279 kts 102°
2026-05-03 22:38 45.34905 11.98976 5258 ft 278 kts 102°
2026-05-03 22:39 45.34539 12.01668 4698 ft 275 kts 102°
2026-05-03 22:39 45.34185 12.04271 4305 ft 266 kts 102°
2026-05-03 22:39 45.33844 12.06784 4124 ft 250 kts 102°
2026-05-03 22:39 45.33526 12.09126 3985 ft 231 kts 101°
2026-05-03 22:40 45.33449 12.11326 3695 ft 223 kts 82°
2026-05-03 22:40 45.33898 12.13406 3296 ft 220 kts 61°
2026-05-03 22:40 45.34823 12.15100 3014 ft 211 kts 41°
2026-05-03 22:40 45.35889 12.16454 3010 ft 209 kts 41°
2026-05-03 22:41 45.36964 12.17828 3002 ft 207 kts 41°
2026-05-03 22:41 45.38032 12.19194 2911 ft 206 kts 41°
2026-05-03 22:41 45.39085 12.20539 2704 ft 205 kts 41°
2026-05-03 22:41 45.40161 12.21914 2441 ft 205 kts 41°
2026-05-03 22:42 45.41207 12.23253 2184 ft 198 kts 41°
2026-05-03 22:42 45.42206 12.24531 1919 ft 188 kts 41°
2026-05-03 22:42 45.43151 12.25741 1673 ft 178 kts 42°
2026-05-03 22:42 45.44042 12.26882 1445 ft 166 kts 42°
2026-05-03 22:43 45.44874 12.27950 1204 ft 157 kts 41°
2026-05-03 22:43 45.45666 12.28969 1039 ft 151 kts 41°
2026-05-03 22:43 45.46431 12.29951 835 ft 148 kts 41°
2026-05-03 22:43 45.47186 12.30913 661 ft 144 kts 41°
2026-05-03 22:44 45.47926 12.31851 432 ft 140 kts 41°
2026-05-03 22:44 45.48646 12.32784 273 ft 140 kts 43°
2026-05-03 22:44 45.49365 12.33710 85 ft 139 kts 41°
2026-05-03 22:44 45.50057 12.34595 15 ft 121 kts 41°
2026-05-03 22:45 45.50558 12.35246 13 ft 73 kts 42°
2026-05-03 22:45 45.50814 12.35576 16 ft 48 kts 42°
2026-05-03 22:45 45.51020 12.35815 14 ft 26 kts 22°
2026-05-03 22:45 45.51196 12.35883 14 ft 23 kts 12°
2026-05-03 22:46 45.51270 12.35832 14 ft 13 kts 267°
2026-05-03 22:46 45.51206 12.35729 15 ft 15 kts 222°
2026-05-03 22:46 45.51122 12.35621 16 ft 18 kts 222°
2026-05-03 22:46 45.51029 12.35501 17 ft 20 kts 224°
2026-05-03 22:47 45.50977 12.35327 19 ft 22 kts 257°
2026-05-03 22:47 45.50902 12.35136 16 ft 25 kts 220°
2026-05-03 22:47 45.50769 12.34961 16 ft 28 kts 220°
2026-05-03 22:47 45.50640 12.34798 16 ft 20 kts 223°
2026-05-03 22:48 45.50560 12.34694 16 ft 22 kts 222°
2026-05-03 22:49 45.50528 12.34653 16 ft 23 kts 221°
2026-05-03 22:49 45.50401 12.34488 16 ft 26 kts 221°
2026-05-03 22:49 45.50289 12.34349 16 ft 17 kts 224°
2026-05-03 22:49 45.50251 12.34254 16 ft 9 kts 302°
2026-05-03 22:50 45.50299 12.34184 17 ft 9 kts 311°
2026-05-03 22:50 45.50313 12.34162 16 ft 0 kts 312°